Notices

What's New in latest Release from April 7th, 2021:

- Updated Glossary, including Speed of Maximum Gust, and Total Hourly Precipitation

- Updated national and regional climate services offices contacts and prices information

- Addition of station inventory lists for 1981-2010, 1971-2000, and 1961-1990 Normals.

If you haven't already, please take our survey and provide feedback about our website: https://eccc.sondage-survey.ca/f/LanguageSelection.aspx?s=442ca660-fcf1-47c0-95a9-59707d6fd709

Hourly Data Report for April 22, 2020

CLYDE RIVER A
NUNAVUT
Current Station Operator: NAVCAN

70°29'09.000" N
68°31'01.000" W
26.50 m
2400804
71090
YCY

Download Data

Hourly Data (April 2020)
Hourly Data Report for April 22, 2020
TIME
LST
Temp Definition
°C
Dew Point Definition
°C
Rel Hum Definition
%
Precip. Amount Definition
mm

Wind Dir Definition
10's deg

Wind Spd Definition
km/h
Visibility Definition
km
Stn Press Definition
kPa
Hmdx Definition


Wind Chill Definition


Weather Definition


00:00 -19.1 -21.1 85 0.0 24 8 16.1 101.34   -25 LegendNANA
01:00 -18.9 -21.0 84 0.0 24 8 16.1 101.33   -25 LegendNANA
02:00 -19.5 -21.5 84 0.0 31 26 16.1 101.32   -31 LegendNANA
03:00 -19.8 -21.7 85 0.0 30 18 16.1 101.35   -30 LegendNANA
04:00 -17.7 -19.3 87 0.0 30 17 16.1 101.39   -27 LegendNANA
05:00 -16.0 -18.0 85 0.0 31 18 16.1 101.37   -25 LegendNANA
06:00 -15.6 -17.6 85 0.0 32 30 16.1 101.32   -27 LegendNANA
07:00 -15.4 -17.4 85 0.0 32 28 16.1 101.31   -26 LegendNANA
08:00 -14.5 -16.8 83 0.0 32 28 16.1 101.31   -25 LegendNANA
09:00 -14.1 -16.4 83 0.0 32 34 16.1 101.25   -25 LegendNANA
10:00 -13.8 -16.3 82 0.0 33 37 16.1 101.23   -25 LegendNANA
11:00 -13.8 -16.4 81 0.0 32 41 14.5 101.19   -26 LegendNANA
12:00 -13.4 -15.9 82 0.0 32 35 16.1 101.15   -25 LegendNANA
13:00 -13.4 -16.3 79 0.0 33 37 16.1 101.11   -25 LegendNANA
14:00 -13.4 -16.2 80 0.0 32 37 14.5 101.09   -25 LegendNANA
15:00 -13.6 -16.4 80 0.0 32 37 16.1 101.10   -25 LegendNANA
16:00 -13.4 -16.2 80 0.0 32 41 14.5 101.07   -25 LegendNANA
17:00 -14.0 -17.1 78 0.0 32 34 16.1 101.08   -25 LegendNANA
18:00 -14.3 -17.2 79 0.0 31 21 16.1 101.11   -24 LegendNANA
19:00 -15.2 -17.8 81 0.0 31 24 16.1 101.10   -25 LegendNANA
20:00 -15.1 -17.7 81 0.0 31 30 16.1 101.06   -26 LegendNANA
21:00 -15.2 -17.8 81 0.0 32 28 16.1 101.07   -26 LegendNANA
22:00 -15.5 -17.5 85 0.0 31 22 16.1 101.14   -25 LegendNANA
23:00 -15.3 -18.5 77 0.0 30 11 16.1 101.14   -22 LegendNANA

Notes on Data Quality.

Legend

  • E = Estimated
  • M = Missing
  • NA = Not Available*
  • [empty] = Indicates an unobserved value
Date modified: